Estación de Maule

Ultimos registro cada 15 minutos 30
Estación Fecha / Hora Temperatura Humedad Lluvia Velocidad Dirección Radiación Presion
30 Maule 07-05-2026 07:30 3,7 94 0 0 275 0 1027,2
29 Maule 07-05-2026 07:00 4,1 95 0 0 275 0 1027,1
28 Maule 07-05-2026 06:45 4,9 94 0 0 275 0 1026,5
27 Maule 07-05-2026 06:30 4,9 94 0 0 275 0 1026,5
26 Maule 07-05-2026 06:15 4,8 96 0 0,4 275 0 1026,5
25 Maule 07-05-2026 06:00 4,2 94 0 0 274 0 1026,1
24 Maule 07-05-2026 05:45 5,1 93 0 0 274 0 1025,9
23 Maule 07-05-2026 05:30 5,1 93 0 0 274 0 1025,9
22 Maule 07-05-2026 05:15 5,7 94 0 0 274 0 1025,9
21 Maule 07-05-2026 05:00 5,8 93 0 0 274 0 1025,7
20 Maule 07-05-2026 04:45 5,9 92 0 0 274 0 1025,4
19 Maule 07-05-2026 04:30 5,9 92 0 0 274 0 1025,4
18 Maule 07-05-2026 04:15 6,3 92 0 0 274 0 1025,3
17 Maule 07-05-2026 04:00 6,8 92 0 0 274 0 1025,1
16 Maule 07-05-2026 03:45 6,8 93 0 0 274 0 1024,9
15 Maule 07-05-2026 03:30 6,8 93 0 0 274 0 1024,9
14 Maule 07-05-2026 03:15 6,8 93 0 0 274 0 1024,9
13 Maule 07-05-2026 03:00 7 93 0 0 274 0 1025
12 Maule 07-05-2026 02:45 7,2 92 0 0 274 0 1024,9
11 Maule 07-05-2026 02:30 7,2 92 0 0 274 0 1024,9
10 Maule 07-05-2026 02:15 7,2 92 0 0 274 0 1025,1
9 Maule 07-05-2026 02:00 7,4 91 0 0 274 0 1025,1
8 Maule 07-05-2026 01:45 8,4 90 0 0 274 0 1024,1
7 Maule 07-05-2026 01:30 8,4 90 0 0 274 0 1024,1
6 Maule 07-05-2026 01:15 8,7 90 0 0 274 0 1024,1
5 Maule 07-05-2026 01:00 8,8 91 0 0 274 0 1024,2
4 Maule 07-05-2026 00:45 9,1 89 0 0 274 0 1024,1
3 Maule 07-05-2026 00:30 9,1 89 0 0 274 0 1024,1
2 Maule 07-05-2026 00:15 9,3 89 0 0 274 0 1024
1 Maule 07-05-2026 00:00 9,1 90 0 0 274 0 1023,8